Theta_e
314 315 314 313 311 309 310 311 304 313 314 303 305 298 299 299 301 303 300 300 298 295 296 294 293 294 297 302 300 294 296 290 286 291 299 300 297 294 295 289 289 292 292 294
315 314 314 312 311 310 306 306 309 314 312 297 298 301 300 299 298 298 297 297 298 298 293 290 295 296 300 301 299 295 295 289 283 287 291 294 294 296 296 293 291 289 290 294
314 315 314 312 312 311 307 308 301 306 307 304 299 298 297 296 302 299 298 297 298 294 292 295 292 295 299 301 300 305 298 288 286 283 288 292 291 294 296 291 287 290 293 296
315 315 314 313 311 311 309 309 300 303 296 297 299 299 297 295 294 299 299 298 295 293 288 291 291 294 295 298 302 299 294 286 289 291 293 293 292 293 294 292 291 286 293 296
315 315 315 314 312 310 312 303 302 304 300 302 298 297 295 293 294 296 294 294 295 295 289 291 289 292 291 291 296 293 295 288 290 289 293 293 291 294 295 295 295 293 294 296
315 315 315 314 312 311 311 312 312 306 300 299 296 294 295 295 298 299 299 297 295 293 295 297 297 297 295 294 291 291 292 289 286 282 291 291 287 291 293 295 297 295 290 294
314 315 315 315 314 312 312 313 311 305 297 298 296 298 298 298 298 296 299 300 295 299 303 301 299 298 296 296 294 294 290 289 290 283 288 279 290 297 297 296 297 299 297 299
314 315 316 316 315 314 312 316 312 307 297 300 300 300 299 300 301 298 299 300 302 303 299 292 290 291 292 294 296 295 293 291 284 282 283 287 290 295 296 293 293 302 302 304
314 315 315 316 316 314 315 317 318 312 304 299 304 301 301 296 296 298 299 305 304 301 295 293 287 285 287 286 290 296 295 293 289 286 281 279 291 297 301 298 287 302 302 303
313 314 315 316 317 315 313 316 319 313 306 306 306 300 300 303 299 295 299 300 298 302 293 289 286 285 290 283 284 286 288 289 286 286 283 287 296 299 301 287 288 300 301 300
313 314 314 315 317 316 313 317 320 312 307 308 310 309 304 303 302 295 299 298 298 295 290 288 288 285 287 286 288 289 287 285 286 286 283 279 298 298 291 294 297 298 299 300
313 314 314 315 316 316 314 315 321 320 311 309 314 314 314 311 308 302 302 298 298 297 294 291 290 286 288 287 283 291 285 289 286 287 288 295 295 294 296 297 295 296 297 300
312 313 313 315 316 315 314 312 317 317 311 310 310 308 313 313 311 309 301 302 302 301 302 296 293 286 290 284 285 288 291 294 288 288 292 293 293 295 295 295 295 297 298 298
312 312 313 314 315 315 314 311 315 316 312 304 308 315 311 315 312 311 309 306 307 306 302 297 293 289 294 288 290 288 291 292 289 289 292 292 295 295 295 296 297 297 299 298
311 312 313 314 315 314 313 313 317 319 310 303 304 311 314 314 312 310 310 307 305 302 299 296 293 296 295 295 293 288 293 290 287 284 293 292 292 296 296 295 295 296 297 301
311 312 313 315 315 314 312 313 318 318 318 307 300 313 311 311 312 310 307 306 305 303 300 298 299 301 296 290 287 294 297 298 296 293 296 295 296 297 297 296 297 298 298 305
311 312 313 314 314 312 311 309 313 312 318 306 301 305 312 312 311 309 307 307 304 303 303 299 298 299 299 293 286 295 299 299 299 299 298 295 296 294 298 298 297 299 299 301
310 311 313 313 313 311 309 315 313 316 312 309 300 302 308 313 305 302 308 303 304 304 302 301 298 299 296 286 295 299 301 301 300 300 299 298 298 298 299 300 298 296 296 297
310 311 313 312 309 310 315 317 314 315 311 302 302 301 298 312 308 306 305 306 299 305 299 300 298 289 284 289 296 299 301 299 300 300 300 299 297 298 298 297 296 295 296 296
310 311 310 309 316 316 316 310 306 305 306 306 300 308 302 308 308 305 302 302 297 294 299 303 293 288 296 301 304 302 302 301 302 298 295 296 297 298 298 297 297 297 296 297
311 312 314 317 316 314 310 306 303 304 302 304 306 306 303 311 302 302 306 299 299 291 296 295 294 294 299 304 303 304 304 303 301 301 302 299 299 298 298 298 298 297 297 297
312 311 314 319 314 310 305 304 305 300 300 305 305 308 308 311 312 304 299 296 298 289 302 296 288 298 302 302 302 304 304 304 303 304 303 302 302 301 300 300 298 298 299 299
318 314 313 312 311 296 299 295 300 300 305 305 308 305 310 310 306 298 298 293 292 302 291 288 295 297 301 302 304 304 305 306 304 304 304 305 304 303 302 301 301 300 299 300
312 312 293 305 303 303 302 301 303 309 306 308 310 305 304 305 299 298 291 292 299 289 287 290 295 297 301 302 305 303 303 305 305 303 304 303 303 302 303 303 302 302 300 300
313 313 296 305 308 307 309 311 311 312 312 308 306 303 303 300 296 297 297 293 290 292 290 296 300 301 302 303 303 302 304 302 302 303 303 303 303 302 301 303 302 303 301 300
315 313 308 312 310 311 310 311 307 310 309 310 307 301 299 298 299 295 293 290 286 291 297 301 304 304 304 304 304 304 304 304 302 302 303 304 302 300 302 303 303 302 302 300
313 309 312 310 313 310 312 309 308 314 307 302 304 298 295 301 296 293 298 292 297 300 302 305 305 304 304 304 305 305 305 305 303 303 302 303 303 303 303 300 303 302 302 302
Wind_Speed
20 20 20 20 22 28 8 5 1 4 3 2 3 4 4 8 12 12 9 4 6 10 11 8 8 9 10 13 9 6 9 4 5 14 19 17 15 13 9 5 9 5 4 7
19 20 20 19 18 15 6 6 2 5 10 5 5 2 14 12 10 12 9 10 10 7 5 5 8 9 12 13 9 5 7 5 5 10 10 2 7 12 13 2 3 9 5 6
19 20 20 19 18 11 3 4 4 5 9 9 12 8 8 10 13 12 11 7 7 9 9 10 4 6 7 9 9 10 6 3 4 6 11 10 13 22 22 11 6 10 10 12
19 19 20 20 22 18 3 2 3 6 6 6 9 12 12 12 10 9 9 6 13 10 6 8 7 12 11 13 10 4 4 4 8 14 17 17 17 19 23 20 11 3 10 10
18 18 20 21 23 27 1 4 4 4 4 2 13 11 9 11 10 7 9 10 11 8 4 5 9 7 7 5 7 4 1 5 7 13 17 19 20 18 19 22 19 11 12 15
17 18 19 21 22 21 4 4 5 2 4 11 7 6 4 3 3 7 8 5 3 7 10 11 12 11 9 9 8 9 1 3 3 5 10 16 16 14 16 20 19 11 10 5
15 16 17 19 18 14 4 2 3 3 5 6 4 3 4 9 5 1 4 6 4 6 11 11 11 12 12 10 11 8 7 5 4 4 4 6 7 16 17 19 20 16 12 9
15 15 15 17 17 18 4 5 5 4 4 7 7 8 7 6 3 4 3 8 3 6 8 4 7 4 5 4 7 9 6 2 2 4 5 9 12 5 11 11 8 17 19 18
13 14 13 15 15 16 4 5 5 3 3 5 10 2 8 5 6 4 5 3 2 6 5 3 3 3 4 5 9 6 10 6 5 2 4 6 6 7 11 8 3 18 17 14
11 12 11 14 14 13 5 3 6 3 3 3 5 3 2 1 2 2 2 3 4 4 2 2 4 3 2 3 5 7 6 3 6 7 6 5 15 14 4 7 6 15 15 11
9 9 8 11 12 11 7 2 4 3 4 4 8 5 4 5 2 1 3 1 3 4 4 3 2 2 2 2 4 6 4 4 4 5 6 6 20 11 8 8 14 13 12 13
9 8 7 10 11 10 8 3 3 1 3 4 2 7 2 1 2 1 2 2 2 2 2 2 1 0 2 2 2 5 1 3 3 3 6 11 10 11 11 13 13 15 16 15
8 7 6 8 9 8 5 5 5 3 4 6 3 4 4 2 5 3 0 2 4 2 2 2 2 2 3 1 2 3 2 3 2 5 3 13 14 10 13 16 15 17 17 18
7 5 6 8 8 6 3 3 6 2 3 3 4 6 5 3 7 5 4 4 5 6 3 3 2 2 4 3 3 3 3 4 3 6 9 15 3 14 15 16 17 18 17 21
6 5 7 9 9 7 6 5 5 1 2 3 6 12 8 7 7 5 6 1 1 3 2 3 4 3 3 3 1 3 3 4 2 4 6 8 11 12 16 15 16 17 22 26
5 5 8 8 8 6 5 2 2 3 2 2 4 2 4 7 8 6 6 3 4 3 4 4 4 6 5 4 3 5 10 8 8 4 4 6 10 12 12 13 14 16 21 18
5 4 7 6 5 3 4 3 2 5 2 2 5 3 6 11 7 3 2 6 3 3 3 3 3 3 6 2 3 6 6 13 11 7 7 7 5 7 11 10 11 10 13 13
6 5 7 7 5 8 6 3 6 3 3 2 4 5 2 9 4 3 4 3 4 4 4 2 3 3 3 1 7 7 6 8 9 9 7 7 7 6 8 7 9 9 10 14
4 4 7 3 3 4 2 10 9 2 2 3 4 3 3 7 5 5 5 6 4 4 4 3 5 2 3 8 7 8 5 2 4 7 10 9 8 7 4 7 10 9 10 10
1 2 4 4 2 14 8 3 2 1 3 3 4 4 7 7 6 5 3 3 4 3 5 5 4 4 6 7 8 8 7 6 5 5 2 5 5 4 1 6 7 8 9 9
3 4 3 4 4 2 2 4 5 4 4 5 3 4 13 7 4 3 3 0 2 1 3 5 4 3 4 7 5 9 7 6 3 3 5 2 7 2 2 4 5 5 7 9
3 3 6 4 4 4 4 2 3 2 4 3 4 5 6 2 3 3 2 2 1 4 3 3 1 3 7 3 4 7 10 8 5 5 4 5 6 2 1 5 4 2 3 5
3 3 5 3 4 2 5 8 1 3 3 5 5 5 4 3 6 4 2 2 2 3 2 4 4 3 2 10 4 7 6 8 12 6 2 7 3 5 2 2 6 4 3 3
4 4 4 4 3 5 2 6 8 4 6 7 4 4 4 3 4 2 3 5 1 4 4 3 2 6 7 10 3 9 6 4 8 10 6 4 4 3 3 1 5 6 2 3
5 2 3 3 6 6 5 6 4 2 4 4 3 4 2 2 1 2 3 0 3 4 4 2 5 9 8 4 2 3 6 5 2 6 8 6 5 7 2 4 4 5 5 3
4 5 4 2 3 3 2 2 6 6 6 4 3 1 2 2 2 4 6 5 2 3 4 4 6 4 3 1 4 2 3 2 6 3 5 5 7 6 3 6 4 3 4 3
4 5 11 1 0 3 3 4 5 2 4 3 1 4 4 3 2 4 2 3 4 2 4 3 3 2 2 1 5 3 5 1 4 7 8 1 6 3 11 7 4 3 4 1
Wind_Direction
336 334 335 340 337 336 3 317 274 302 268 297 232 52 39 17 26 17 5 354 9 28 3 358 346 346 36 34 29 21 9 297 320 292 296 303 299 287 238 184 279 244 204 271
337 334 337 342 339 4 326 311 270 33 2 19 17 97 95 64 28 30 13 12 19 358 348 355 356 3 2 53 27 52 352 328 346 320 321 323 327 330 310 261 310 265 253 252
338 339 339 341 333 334 315 296 9 3 45 16 33 353 39 74 46 36 11 45 26 23 353 346 314 334 12 35 67 23 1 288 267 260 288 330 317 319 322 311 240 269 266 262
340 344 338 340 332 329 262 240 52 65 28 17 56 39 26 39 21 354 45 24 30 26 13 332 4 357 349 341 2 45 38 287 304 296 295 304 299 302 306 306 292 250 286 292
343 344 341 345 337 330 263 42 14 12 2 37 70 30 20 30 11 346 12 23 3 2 342 314 320 326 327 330 341 335 344 314 330 298 298 297 284 279 287 291 290 296 299 295
347 347 344 348 350 345 21 355 1 268 11 50 51 42 36 354 54 315 20 50 29 316 358 340 314 302 293 294 286 293 144 162 356 276 311 312 287 269 279 280 285 281 288 322
350 347 346 349 351 5 278 23 297 314 82 90 86 53 337 1 37 326 335 18 31 352 324 302 281 258 251 248 254 258 260 187 154 286 290 274 266 322 290 283 288 318 291 13
351 347 348 348 349 3 343 10 355 351 62 52 40 27 28 321 356 203 30 54 8 323 308 306 327 59 29 302 296 277 267 213 248 184 219 268 288 301 16 3 320 29 32 25
354 341 349 346 345 360 338 50 346 339 328 23 354 9 57 5 344 87 51 66 69 1 357 8 347 27 359 341 343 42 10 24 159 333 254 255 62 332 313 340 257 8 20 29
351 336 351 342 340 3 348 338 28 287 326 77 71 55 328 5 40 229 22 348 353 38 42 338 32 36 260 339 321 342 312 306 246 221 240 283 344 327 292 277 337 345 354 4
341 327 347 333 333 5 359 321 54 0 326 16 4 37 18 349 284 41 12 312 20 21 57 8 45 30 15 340 305 324 324 336 329 302 218 259 4 14 9 326 316 320 331 332
329 327 346 328 328 354 357 296 98 146 262 325 279 306 38 164 113 330 58 133 85 75 81 83 106 352 14 329 292 339 65 75 297 269 295 6 2 318 343 352 333 319 321 319
325 326 342 326 322 341 358 309 324 333 289 284 203 225 230 196 113 18 120 125 128 111 352 105 91 181 148 283 304 278 265 80 243 303 28 334 324 351 341 329 318 304 297 310
310 325 328 305 302 317 335 298 308 312 297 281 292 145 169 148 123 181 88 118 122 138 148 152 175 229 145 209 231 194 239 306 275 256 276 310 239 332 327 321 317 308 299 298
296 313 306 294 285 293 284 266 267 112 138 300 300 303 223 181 157 210 109 55 208 146 184 205 210 173 135 180 178 242 209 224 208 261 315 303 300 312 325 314 312 310 324 300
285 303 298 289 267 287 280 204 95 27 40 284 283 226 177 193 154 189 141 226 245 181 186 204 204 163 152 175 213 229 204 209 224 246 234 258 298 308 303 312 321 328 326 332
281 290 297 299 266 257 257 320 20 3 319 247 279 245 187 169 155 163 176 173 213 206 243 232 199 159 166 142 222 240 245 208 224 219 266 256 303 323 317 331 330 327 326 341
283 291 290 287 293 271 278 219 212 164 281 284 270 267 80 170 175 194 180 212 184 215 205 240 118 61 29 222 227 174 220 204 201 214 218 249 260 285 324 330 329 349 356 358
277 304 304 274 219 231 89 108 113 155 275 282 254 268 276 159 199 186 182 200 188 201 180 194 88 114 229 224 241 140 171 135 132 194 226 211 254 283 348 357 355 1 7 10
283 240 211 230 109 123 137 71 113 114 221 220 267 284 272 202 177 192 156 158 227 169 211 125 125 225 234 226 242 143 177 157 132 140 310 313 285 327 46 30 10 14 10 4
209 217 229 82 132 218 211 233 198 150 217 205 217 240 262 315 41 284 338 58 16 55 235 147 165 219 200 231 194 143 148 149 163 193 165 233 293 339 32 99 59 49 48 20
303 304 274 189 209 213 246 338 60 184 269 272 225 238 208 221 211 81 45 208 213 219 209 103 16 64 28 131 196 174 163 157 178 219 124 243 275 128 6 156 132 72 72 49
242 222 238 166 220 36 62 334 52 251 239 243 263 342 14 357 22 56 25 220 259 322 124 162 51 62 291 300 296 102 147 157 176 142 195 290 91 194 241 126 159 145 87 67
248 236 298 213 114 69 300 222 248 247 226 277 292 46 34 5 48 6 48 249 45 13 22 65 120 181 212 263 4 157 175 121 143 173 184 230 245 130 183 300 80 141 114 175
257 233 243 76 136 211 231 233 253 226 200 9 130 90 30 45 122 228 291 267 43 38 356 103 177 214 233 268 326 4 137 156 160 97 196 196 255 133 233 147 82 113 116 99
246 249 278 338 78 61 314 304 21 35 354 127 91 187 237 49 2 1 17 41 357 264 256 284 134 164 197 40 326 297 300 111 155 161 14 185 137 170 118 128 104 42 126 126
239 13 317 262 64 60 172 78 24 96 21 40 13 18 3 274 34 39 65 183 262 266 333 86 106 178 138 48 310 347 350 0 130 142 206 65 155 185 121 135 169 145 294 107